Location: Saint Francis Village
(32.6154°N, 97.4559°W)
Time: 10:12:31
(UTC+00:00)

ISS - Visible Passes

Search period start: 12 October 2024 00:00
Search period end: 22 October 2024 00:00
Orbit: 411 x 423 km, 51.6° (Epoch: 12 October)

Date Brightness Start Highest point End Pass type
(mag) Time Alt. Az. Time Alt. Az. Time Alt. Az.
12 Oct -0.4 12:06:20 10° SSE 12:07:32 12° SE 12:08:45 10° ESE visible
14 Oct -2.4 12:04:15 10° SSW 12:07:23 40° SE 12:10:31 10° ENE visible
15 Oct -1.2 11:16:29 10° S 11:19:01 20° SE 11:21:34 10° ENE visible
16 Oct -0.6 10:29:54 10° SE 10:30:36 11° SE 10:31:19 10° ESE visible
16 Oct -3.5 12:03:43 10° WSW 12:06:57 51° NW 12:10:12 10° NE visible
17 Oct -3.8 11:16:59 34° SW 11:18:16 77° SE 11:21:35 10° NE visible
18 Oct -1.4 10:30:59 23° E 10:30:59 23° E 10:32:36 10° ENE visible
18 Oct -2.0 12:03:55 10° W 12:06:18 18° NW 12:08:42 10° NNE visible
19 Oct -2.7 11:17:36 30° NNW 11:17:36 30° NNW 11:20:14 10° NNE visible
20 Oct -0.8 10:31:02 13° NE 10:31:02 13° NE 10:31:27 10° NE visible
21 Oct -1.2 11:17:06 11° N 11:17:06 11° N 11:17:38 10° N visible
